Tracking 29059 objects as of 19-Jun-2024
HD Live streaming from Space Station
objects crossing your sky now

ONEWEB-0316

Track ONEWEB-0316 now!
10-day predictions
ONEWEB-0316 is classified as:


NORAD ID: 49102
Int'l Code: 2021-075AD
Perigee: 1,195.4 km
Apogee: 1,198.4 km
Inclination: 87.9 °
Period: 109.2 minutes
Semi major axis: 7567 km
RCS: Unknown
Launch date: August 21, 2021
Source: United Kingdom (UK)
Launch site: TYURATAM MISSILE AND SPACE COMPLEX (TTMTR)
Your satellite tracking list
Your tracking list is empty




NASA's NSSDC Master Catalog

Two Line Element Set (TLE):
1 49102U 21075AD  24171.12448430  .00000037  00000-0  62271-4 0  9994
2 49102  87.9146 120.3986 0001947  86.6302 273.5053 13.18685354142262
Source of the keplerian elements: AFSPC